Location: Borderline Observatory
(42.7345°N, 72.8696°W)
Time: 16:54:23
(UTC-04:00)

Daily predictions for brighter satellites

Satellite Brightness Start Highest point End
(mag) Time Altitude Azimuth Time Altitude Azimuth Time Altitude Azimuth
NOSS 3-2 (A) 4.3 19:02:20 10° S 19:07:25 29° ESE 19:12:49 10° NE
USA 238 DEB 3.8 19:04:14 10° SSW 19:11:15 74° ESE 19:18:17 10° NE
USA 238 3.8 19:04:20 10° SSW 19:11:21 73° ESE 19:18:23 10° NE
Cosmos 1766 4.2 19:08:02 10° SSE 19:11:23 27° E 19:14:45 10° NNE
Cosmos 2237 Rocket 2.2 19:06:26 10° SSW 19:12:06 75° ESE 19:17:47 10° NNE
Cosmos 2233 Rocket 4.0 19:08:16 10° S 19:14:33 77° E 19:20:54 10° N
Cosmos 1867 4.0 19:09:36 10° SW 19:15:03 71° NW 19:20:32 10° NNE
BREEZE-M DEB (TANK) 2.9 19:19:21 10° W 19:21:19 34° SSW 19:24:48 10° SE
Cosmos 1953 3.8 19:20:25 10° SE 19:23:04 17° E 19:25:43 10° NE
Cosmos 921 Rocket 3.9 19:20:03 10° NNW 19:24:10 52° WSW 19:28:13 10° S
Cosmos 1980 3.9 19:19:29 10° SSW 19:25:08 80° WNW 19:30:50 10° NNE
COSMOS 2455 4.1 19:20:58 10° SW 19:26:41 44° NW 19:32:27 10° NNE
NOAA 12 4.1 19:21:29 10° SSE 19:26:43 79° ENE 19:32:01 10° N
CZ-4B DEB 4.3 19:24:54 10° ESE 19:27:21 20° ENE 19:29:48 10° NNE
ATLAS 5 CENTAUR R/B 3.1 19:24:52 10° SSE 19:28:16 20° ESE 19:31:50 10° ENE
SL-16 R/B 2.5 19:24:34 10° S 19:29:57 46° ESE 19:35:22 10° NE
Cosmos 1607 4.1 19:25:34 10° SW 19:31:44 79° WNW 19:37:56 10° NNE
ATLAS CENTAUR R/B 3.7 19:27:29 10° SSW 19:32:19 53° ESE 19:46:46 10° NE
Cosmos 292 Rocket 3.9 19:29:51 10° SSW 19:34:38 83° WNW 19:39:30 10° NNE
Cosmos 2056 Rocket 3.6 19:30:27 10° NNW 19:35:54 76° ENE 19:41:20 10° SSE
Spot 2 Rocket 3.5 19:31:36 10° SSE 19:36:35 66° ENE 19:41:35 10° N
BREEZE-M TANK 4.4 19:26:20 10° WNW 19:37:57 48° SW 19:41:32 10° SSE
Cosmos 1076 Rocket 3.8 19:35:31 10° N 19:39:40 45° ENE 19:43:50 10° SSE
Timation 1 Rocket 4.5 19:34:31 10° NNW 19:40:23 54° ENE 19:46:13 10° SE
Cosmos-2242 3.9 19:39:19 10° SSE 19:43:01 28° E 19:46:44 10° NNE
Meteor 1-22 Rocket 4.0 19:37:48 10° S 19:43:10 77° E 19:48:28 10° NNE
NOSS 3-2 (C) 3.8 19:37:52 10° S 19:43:28 41° ESE 19:49:32 10° NE
Spot 1 4.3 19:39:27 10° SSE 19:44:18 90° WSW 19:48:54 10° NNW
Cosmos 1437 3.2 19:41:43 10° NNW 19:44:58 64° W 19:48:11 10° S
Cosmos 1371 Rocket 4.4 19:40:03 10° NNW 19:45:18 68° WSW 19:50:35 10° S
Resurs 01 Rocket 1.6 19:41:18 10° SSE 19:45:44 78° ENE 19:50:12 10° N
Cosmos 1805 4.0 19:43:03 10° SSE 19:46:30 30° E 19:49:59 10° NNE
Cosmos 1408 Rocket 3.7 19:43:59 10° N 19:48:15 49° ENE 19:52:27 10° SSE
Okean 3 Rocket 4.0 19:45:47 10° NNW 19:50:19 69° W 19:54:50 10° S
H-2A R/B 3.5 19:47:57 16° SE 19:50:32 33° ENE 19:54:05 10° N
Resurs 1-3 3.5 19:47:54 10° SSE 19:52:16 71° ENE 19:56:39 10° N
ALOS 2.4 19:48:49 10° SSE 19:53:19 51° ENE 19:57:51 10° N
Helios 1B rocket 2.3 19:49:36 10° NNE 19:53:44 79° ESE 19:57:51 10° S
Cosmos 2219 Rocket 3.9 19:49:14 10° WSW 19:54:20 34° NW 19:59:29 10° N
Cosmos 2278 Rocket 3.4 19:49:42 10° NW 19:55:01 43° WSW 20:00:19 10° S
Meteor 1-24 Rocket 4.0 19:49:46 10° NNW 19:55:28 72° W 20:00:55 10° S
Aureole 2 Rocket 2.9 19:52:05 10° SSW 19:56:28 78° ESE 20:00:49 10° NNE
SJ-6B 4.3 19:52:47 10° S 19:56:30 40° W 20:00:19 10° NNW
FREGAT/IRIS 4.1 19:53:51 10° S 19:56:47 39° W 19:59:43 10° NNW
Cosmos 2297 3.8 19:51:54 10° NNW 19:57:36 84° WSW 20:03:14 10° SSE
ASTEX 1 3.9 19:54:18 10° NNE 19:58:53 37° E 20:03:25 10° SSE
Meteor 1-28 Rocket 4.5 19:56:46 10° N 20:00:20 43° WNW 20:03:52 10° SW
Cosmos 1758 3.5 19:58:52 10° S 20:02:48 50° E 20:06:47 10° NNE
Cosmos 1072 Rocket 4.4 19:56:55 10° S 20:03:01 89° W 20:09:11 10° N
Cosmos 1378 3.7 20:02:31 10° NNW 20:06:13 58° W 20:09:53 10° S
Nadezhda 4 Rocket 4.2 20:02:22 10° N 20:08:30 51° ENE 20:13:51 13° SSE
FENGYUN 3A 3.6 20:04:20 10° SSE 20:09:39 73° ENE 20:15:03 10° N
Cosmos 1092 Rocket 4.4 20:06:33 10° N 20:12:22 40° ENE 20:15:23 25° SE
Cosmos 1743 Rocket 3.9 20:09:53 10° N 20:14:11 45° ENE 20:15:39 33° SE
Meteor 1-29 3.4 20:11:28 10° N 20:14:57 63° WNW 20:18:25 10° SSW
Cosmos 2369 Rocket 3.4 20:10:56 10° N 20:15:26 23° NE 20:16:33 22° ENE
Cosmos 1544 3.4 20:15:08 41° ESE 20:15:39 44° E 20:19:15 10° NNE
Cosmos 1603 4.0 20:11:32 10° S 20:16:52 42° ESE 20:22:15 10° NE
CZ-4C R/B 3.5 20:12:10 10° WSW 20:17:17 41° NW 20:23:05 10° NNE
GP-B 4.0 20:13:40 10° NNE 20:17:01 29° ENE 20:17:01 29° ENE
OAO 3 Rocket 4.2 20:13:31 10° SW 20:17:41 30° S 20:18:46 27° SSE
ATLAS CENTAUR R/B 3.0 20:15:43 10° NW 20:19:28 32° WSW 20:22:57 10° S
USA 215 3.6 20:13:56 10° NE 20:20:25 68° NW 20:26:53 10° WSW
Cosmos 1939 Rocket 4.4 20:25:32 22° NE 20:25:32 22° NE 20:27:42 10° NNE
Cosmos 2333 Rocket 4.3 20:20:40 10° WSW 20:25:32 27° NW 20:30:26 10° N
Cosmos 1634 Rocket 4.4 20:25:19 31° ESE 20:27:03 37° E 20:32:41 10° NNE
Atlas Centaur 2 4.2 20:21:07 10° WSW 20:27:54 28° SSW 20:31:50 18° SSE
Cosmos 1943 Rocket 4.0 20:27:29 10° N 20:30:43 15° NE 20:31:02 15° NE
Meteor 1-21 Rocket 4.1 20:26:05 10° N 20:31:42 89° E 20:36:13 16° S
Cosmos 1452 Rocket 3.5 20:27:32 10° NNW 20:32:49 81° WSW 20:36:02 24° SSE
ERS-1 Rocket 3.4 20:34:25 41° ENE 20:34:44 41° ENE 20:39:26 10° N
USA 186 4.2 20:36:59 11° NNW 20:36:59 11° NNW 20:37:05 10° NNW
Cosmos 2034 Rocket 4.2 20:30:55 10° SSW 20:37:08 72° W 20:43:29 10° N
SeaSat 1 2.3 20:39:48 10° NNE 20:44:46 89° ESE 20:49:43 10° SSW
Cosmos 1674 3.1 20:44:45 10° N 20:47:52 54° N 20:47:52 54° N
Cosmos 468 4.4 20:43:47 10° SSW 20:49:03 87° ESE 20:54:20 10° NNE
H-2A R/B 3.9 20:57:31 21° NNE 20:57:31 21° NNE 20:59:22 10° N
NOSS 3-2 (A) 4.2 20:51:49 10° SW 20:57:50 55° NW 21:04:26 10° NNE
Cosmos 1420 Rocket 3.9 20:52:35 10° NNW 20:57:54 87° WSW 20:58:50 62° SSE
Cosmos 1953 4.0 20:55:36 10° SW 20:59:14 33° WNW 21:02:54 10° N
Cosmos 1269 Rocket 4.0 21:03:19 10° SSW 21:08:37 82° WNW 21:13:56 10° NNE
Cosmos 1627 Rocket 4.3 21:04:16 10° N 21:10:26 71° E 21:10:45 70° ESE
H-2A R/B 4.4 21:14:48 11° NNE 21:14:48 11° NNE 21:15:01 10° NNE
ATLAS 5 CENTAUR R/B 2.4 21:07:40 10° SW 21:12:24 56° NW 21:16:21 17° NNE
BREEZE-M DEB (TANK) 3.1 21:02:27 10° WNW 21:12:36 70° N 21:12:53 68° NNE
Cosmos 724 4.4 21:08:17 10° SW 21:14:12 74° NW 21:20:19 10° NNE
SL-16 R/B 4.1 21:09:22 10° WSW 21:14:15 29° NW 21:19:11 10° N
Cosmos 1048 Rocket 4.1 21:12:38 10° SSW 21:18:35 68° N 21:23:15 10° NNE
Envisat 3.3 21:27:01 63° NW 21:27:01 63° NW 21:31:20 10° NNW
Cosmos 1655 Rocket 4.1 21:37:41 10° N 21:43:17 71° NW 21:43:17 71° NW
Cosmos 2369 Rocket 3.1 21:54:18 10° NNW 21:58:21 44° WNW 21:58:21 44° WNW
Cosmos 1943 Rocket 3.7 22:09:43 10° NNW 22:12:33 31° NNW 22:12:33 31° NNW
